FW2439 Weather Reports


Display with metric or nautical units.
time (UTC)temp
F
wind
direction
speed
MPH
gust
MPH
rain 1hr
in
rain 24hr
in
rain mn
in
humidity
%
barometer
mb
20260510013051 64 236 0.0 0.0 0.00 0.00 0.00 77 1012.1
20260510011549 65 236 0.0 0.0 0.00 0.00 0.00 73 1012.0
20260510010048 67 236 0.0 0.0 0.00 0.00 0.00 70 1011.8
20260510004547 69 236 0.0 0.0 0.00 0.00 0.00 65 1011.6
20260510003047 71 236 0.0 0.0 0.00 0.00 0.00 60 1011.4
20260510001548 74 236 0.0 0.0 0.00 0.00 0.00 57 1011.3
20260509234555 78 236 0.0 1.0 0.00 0.00 0.00 49 1011.1
20260509233049 79 229 0.0 1.0 0.00 0.00 0.00 46 1011.0
20260509231546 79 229 0.0 1.0 0.00 0.00 0.00 44 1010.8
20260509230043 82 229 0.0 2.0 0.00 0.00 0.00 36 1010.8
20260509224542 84 229 0.0 3.0 0.00 0.00 0.00 37 1010.8
20260509223043 82 241 0.0 4.0 0.00 0.00 0.00 36 1010.8
20260509221543 82 262 0.0 4.0 0.00 0.00 0.00 37 1010.8
20260509220037 83 221 0.0 3.0 0.00 0.00 0.00 36 1010.8
20260509214538 82 269 0.0 3.0 0.00 0.00 0.00 38 1010.9
20260509213039 83 234 0.0 4.0 0.00 0.00 0.00 40 1010.9
20260509211534 83 224 0.0 2.0 0.00 0.00 0.00 41 1010.8
20260509210040 82 311 0.0 2.0 0.00 0.00 0.00 45 1010.7
20260509204538 83 324 0.0 2.0 0.00 0.00 0.00 41 1010.9
20260509203029 82 287 0.0 3.0 0.00 0.00 0.00 41 1010.9
20260509201530 81 153 0.0 4.0 0.00 0.00 0.00 42 1010.8
20260509200027 81 323 1.0 3.0 0.00 0.00 0.00 46 1011.0
20260509194527 81 185 1.0 3.0 0.00 0.00 0.00 45 1011.1
20260509193027 81 275 1.0 7.0 0.00 0.00 0.00 47 1011.2
20260509191527 80 277 1.0 7.0 0.00 0.00 0.00 46 1011.2
20260509190021 80 273 0.0 4.0 0.00 0.00 0.00 49 1011.3
20260509184534 80 247 0.0 3.0 0.00 0.00 0.00 54 1011.4
20260509183017 79 257 0.0 2.0 0.00 0.00 0.00 54 1011.6
20260509181514 78 259 1.0 6.0 0.00 0.00 0.00 51 1011.5
20260509180014 78 245 1.0 4.0 0.00 0.00 0.00 52 1011.7
20260509174510 77 91 1.0 5.0 0.00 0.00 0.00 56 1011.7
20260509173007 77 272 1.0 4.0 0.00 0.00 0.00 55 1011.7
20260509171504 77 319 1.0 4.0 0.00 0.00 0.00 60 1011.7
20260509170002 76 327 0.0 4.0 0.00 0.00 0.00 60 1011.7
20260509164600 75 283 0.0 2.0 0.00 0.00 0.00 64 1011.8
20260509163059 75 290 1.0 5.0 0.00 0.00 0.00 67 1011.6
20260509161600 75 210 0.0 4.0 0.00 0.00 0.00 64 1011.6
20260509160054 75 246 1.0 4.0 0.00 0.00 0.00 65 1011.6
20260509154550 74 275 1.0 6.0 0.00 0.00 0.00 68 1011.5
20260509153051 73 239 2.0 5.0 0.00 0.00 0.00 69 1011.5
20260509151544 72 262 1.0 5.0 0.00 0.00 0.00 70 1011.5
20260509150042 71 227 0.0 6.0 0.00 0.00 0.00 74 1011.6
20260509144555 71 248 2.0 6.0 0.00 0.00 0.00 73 1011.6
20260509143036 70 224 0.0 8.0 0.00 0.00 0.00 76 1011.6
20260509141533 69 212 1.0 6.0 0.00 0.00 0.00 79 1011.4
20260509140032 68 208 2.0 7.0 0.00 0.00 0.00 78 1011.2
20260509134545 67 214 2.0 6.0 0.00 0.00 0.00 80 1011.2
20260509133025 66 89 0.0 5.0 0.00 0.00 0.00 85 1011.2
20260509131519 62 217 1.0 4.0 0.00 0.00 0.00 90 1011.1
20260509130015 60 222 0.0 3.0 0.00 0.00 0.00 94 1011.2
20260509124511 59 222 1.0 3.0 0.00 0.00 0.00 97 1010.9
20260509123008 57 227 0.0 2.0 0.00 0.00 0.00 97 1010.9
20260509121514 56 228 0.0 3.0 0.00 0.00 0.00 97 1011.0
20260509120004 55 231 1.0 4.0 0.00 0.00 0.00 97 1010.9
20260509114509 54 226 0.0 4.0 0.00 0.00 0.00 97 1010.7
20260509113004 54 236 0.0 2.0 0.00 0.00 0.00 97 1010.4
20260509111608 54 236 0.0 3.0 0.00 0.00 0.00 97 1010.0
20260509110107 54 226 0.0 3.0 0.00 0.00 0.00 96 1009.7
20260509104559 54 214 0.0 5.0 0.00 0.00 0.00 96 1009.4
20260509103105 54 224 0.0 3.0 0.00 0.00 0.00 96 1009.4
20260509101622 54 200 0.0 3.0 0.00 0.00 0.00 96 1009.6
20260509100057 54 231 0.0 3.0 0.00 0.00 0.00 96 1009.8
20260509094602 54 231 0.0 3.0 0.00 0.00 0.00 95 1009.8
20260509093104 54 219 0.0 2.0 0.00 0.00 0.00 95 1009.7
20260509091551 54 221 0.0 2.0 0.00 0.00 0.00 95 1009.9
20260509090100 54 230 0.0 2.0 0.00 0.00 0.00 95 1009.9
20260509084550 54 240 0.0 1.0 0.00 0.00 0.00 95 1010.1
20260509083050 54 240 0.0 1.0 0.00 0.00 0.00 94 1010.0
20260509081550 54 240 0.0 1.0 0.00 0.00 0.00 94 1009.8
20260509080049 54 240 0.0 1.0 0.00 0.00 0.00 94 1009.9
20260509074549 54 240 0.0 0.0 0.00 0.00 0.00 93 1010.0
20260509073055 54 240 0.0 0.0 0.00 0.00 0.00 93 1010.2
20260509071554 55 240 0.0 1.0 0.00 0.00 0.00 93 1010.1
20260509070047 55 240 0.0 2.0 0.00 0.00 0.00 93 1010.5
20260509064551 54 228 0.0 0.0 0.00 0.00 0.00 93 1010.4
20260509063043 54 229 0.0 0.0 0.00 0.00 0.00 92 1010.7
20260509061538 54 228 0.0 0.0 0.00 0.00 0.00 91 1010.8
20260509060038 54 228 0.0 0.0 0.00 0.00 0.00 91 1011.3
20260509054544 54 228 0.0 0.0 0.00 0.00 0.00 90 1011.3
20260509053033 55 228 0.0 0.0 0.00 0.00 0.00 90 1011.3
20260509051529 55 229 0.0 0.0 0.00 0.00 0.00 89 1011.4
20260509050026 56 229 0.0 0.0 0.00 0.00 0.00 88 1011.4
20260509044528 56 228 0.0 0.0 0.00 0.00 0.00 87 1011.4
20260509043026 57 228 0.0 0.0 0.00 0.00 0.00 86 1011.2
20260509041535 57 228 0.0 2.0 0.00 0.00 0.00 86 1011.5
20260509040029 57 228 0.0 1.0 0.00 0.00 0.00 85 1011.2
20260509034525 58 228 0.0 3.0 0.00 0.00 0.00 84 1011.5
20260509033025 57 229 0.0 2.0 0.00 0.00 0.00 84 1011.4
20260509031532 57 229 0.0 1.0 0.00 0.00 0.00 83 1011.5
20260509030024 58 229 0.0 0.0 0.00 0.00 0.00 82 1011.5
20260509024523 58 229 0.0 0.0 0.00 0.00 0.00 80 1011.5
20260509023027 59 229 0.0 1.0 0.00 0.00 0.00 79 1011.4
20260509021527 60 229 0.0 1.0 0.00 0.00 0.00 78 1011.5
20260509020039 60 229 0.0 0.0 0.00 0.00 0.00 77 1011.5
20260509014522 61 229 0.0 1.0 0.00 0.00 0.00 75 1011.3